Madison, SD

8:49 PM CST on December 09, 2019 (GMT -0600)
Madison Municipal

Weather History for KMDS - October, 2019

Change the Weather History Date:

Friday, October 25, 2019

  Actual Average Record
Temperature  
Mean Temperature 40 °F -  
Max Temperature 53 °F 57 °F 64 °F (2014)
Min Temperature 28 °F 33 °F 24 °F (2013)
Degree Days  
Heating Degree Days 24    
Moisture  
Dew Point 31 °F    
Average Humidity 74    
Maximum Humidity 100    
Minimum Humidity 44    
Precipitation  
Precipitation 0.00 in - - ()
Sea Level Pressure  
Sea Level Pressure 30.14 in    
Wind  
Wind Speed 9 mph ()    
Max Wind Speed 16 mph    
Max Gust Speed 22 mph    
Visibility 10.0 miles    
Events      
Averages and records for this station are not official NWS values.
T = Trace of Precipitation, MM = Missing Value Source: Averaged Metar Reports

Daily Weather History Graph

Daily Weather History Graph

Search for Another Location

Airport or City:

Astronomy

Oct. 25, 2019 Rise Set
Actual Time 7:55 AM CDT 6:28 PM CDT
Civil Twilight 7:25 AM CDT 6:58 PM CDT
Nautical Twilight 6:52 AM CDT 7:32 PM CDT
Astronomical Twilight 6:18 AM CDT 8:05 PM CDT
Moon 4:29 AM CDT (10/25) 5:39 PM CDT (10/25)
Length of Visible Light 11h 32m
Length of Day
10h 33m
Waning Crescent, 9% of the Moon is Illuminated
Oct 25
Waning Crescent
Oct 27
New
Nov 4
First Quarter
Nov 12
Full
Nov 19
Last Quarter

Hourly Weather History & Observations

Time (CDT) Temp. Windchill Dew Point Humidity Pressure Visibility Wind Dir Wind Speed Gust Speed Precip Events Conditions
12:15 AM 32.0 °F 24.8 °F 28.4 °F 87% 30.29 in 10.0 mi SSW 8.1 mph - N/A   Clear
12:35 AM 33.8 °F 26.4 °F 28.4 °F 81% 30.29 in 10.0 mi SSW 9.2 mph - N/A   Clear
12:40 AM 33.8 °F 27.7 °F 28.4 °F 81% 30.28 in 10.0 mi SSW 6.9 mph - N/A   Clear
12:55 AM 33.8 °F 27.7 °F 28.4 °F 81% 30.29 in 10.0 mi SW 6.9 mph - N/A   Clear
1:15 AM 33.8 °F 27.7 °F 28.4 °F 81% 30.28 in 10.0 mi SSW 6.9 mph - N/A   Clear
1:20 AM 33.8 °F 27.0 °F 28.4 °F 81% 30.28 in 10.0 mi SW 8.1 mph - N/A   Clear
1:35 AM 33.8 °F 27.0 °F 28.4 °F 81% 30.28 in 10.0 mi SSW 8.1 mph - N/A   Clear
1:40 AM 33.8 °F 27.0 °F 28.4 °F 81% 30.28 in 10.0 mi SSW 8.1 mph - N/A   Clear
1:55 AM 33.8 °F 27.0 °F 28.4 °F 81% 30.28 in 10.0 mi SSW 8.1 mph - N/A   Clear
2:00 AM 32.0 °F 24.8 °F 28.4 °F 87% 30.28 in 10.0 mi SW 8.1 mph - N/A   Clear
2:15 AM 32.0 °F 25.6 °F 28.4 °F 87% 30.27 in 10.0 mi SSW 6.9 mph - N/A   Clear
2:35 AM 32.0 °F 24.8 °F 28.4 °F 87% 30.27 in 10.0 mi SSW 8.1 mph - N/A   Clear
2:40 AM 32.0 °F 26.4 °F 28.4 °F 87% 30.27 in 10.0 mi SSW 5.8 mph - N/A   Clear
2:55 AM 32.0 °F 25.6 °F 28.4 °F 87% 30.27 in 10.0 mi SSW 6.9 mph - N/A   Clear
3:15 AM 32.0 °F 25.6 °F 28.4 °F 87% 30.27 in 10.0 mi SSW 6.9 mph - N/A   Clear
3:20 AM 32.0 °F 25.6 °F 28.4 °F 87% 30.27 in 10.0 mi SSW 6.9 mph - N/A   Clear
3:35 AM 32.0 °F 25.6 °F 28.4 °F 87% 30.26 in 10.0 mi SSW 6.9 mph - N/A   Clear
3:40 AM 32.0 °F 24.8 °F 28.4 °F 87% 30.25 in 10.0 mi SSW 8.1 mph - N/A   Clear
3:55 AM 30.2 °F 21.9 °F 28.4 °F 93% 30.25 in 10.0 mi South 9.2 mph - N/A   Clear
4:15 AM 30.2 °F 21.3 °F 30.2 °F 100% 30.24 in 10.0 mi South 10.4 mph - N/A   Clear
4:20 AM 30.2 °F 21.3 °F 30.2 °F 100% 30.25 in 10.0 mi South 10.4 mph - N/A   Clear
4:35 AM 30.2 °F 21.9 °F 30.2 °F 100% 30.25 in 10.0 mi South 9.2 mph - N/A   Clear
4:40 AM 30.2 °F 21.3 °F 30.2 °F 100% 30.24 in 10.0 mi South 10.4 mph - N/A   Clear
4:55 AM 30.2 °F 21.9 °F 30.2 °F 100% 30.24 in 10.0 mi SSW 9.2 mph - N/A   Clear
5:00 AM 32.0 °F 24.8 °F 32.0 °F 100% 30.24 in 10.0 mi SSW 8.1 mph - N/A   Clear
5:15 AM 32.0 °F 24.2 °F 32.0 °F 100% 30.23 in 10.0 mi SSW 9.2 mph - N/A   Clear
5:20 AM 32.0 °F 24.2 °F 32.0 °F 100% 30.24 in 10.0 mi SSW 9.2 mph - N/A   Clear
5:35 AM 32.0 °F 23.6 °F 32.0 °F 100% 30.24 in 10.0 mi SSW 10.4 mph - N/A   Clear
5:40 AM 32.0 °F 23.6 °F 32.0 °F 100% 30.24 in 10.0 mi SSW 10.4 mph - N/A   Clear
5:55 AM 32.0 °F 24.2 °F 32.0 °F 100% 30.23 in 10.0 mi SSW 9.2 mph - N/A   Clear
6:00 AM 32.0 °F 24.2 °F 32.0 °F 100% 30.23 in 10.0 mi South 9.2 mph - N/A   Clear
6:15 AM 32.0 °F 23.6 °F 32.0 °F 100% 30.23 in 10.0 mi South 10.4 mph - N/A   Clear
6:20 AM 32.0 °F 23.0 °F 32.0 °F 100% 30.23 in 10.0 mi South 11.5 mph - N/A   Clear
6:35 AM 32.0 °F 24.2 °F 32.0 °F 100% 30.22 in 10.0 mi SSW 9.2 mph - N/A   Clear
6:40 AM 32.0 °F 24.2 °F 32.0 °F 100% 30.23 in 10.0 mi SSW 9.2 mph - N/A   Clear
6:55 AM 30.2 °F 21.9 °F 30.2 °F 100% 30.22 in 10.0 mi South 9.2 mph - N/A   Clear
7:15 AM 30.2 °F 22.6 °F 30.2 °F 100% 30.22 in 10.0 mi South 8.1 mph - N/A   Clear
7:20 AM 30.2 °F 22.6 °F 30.2 °F 100% 30.22 in 10.0 mi South 8.1 mph - N/A   Clear
7:35 AM 30.2 °F 23.4 °F 30.2 °F 100% 30.21 in 10.0 mi South 6.9 mph - N/A   Clear
7:40 AM 30.2 °F 22.6 °F 30.2 °F 100% 30.21 in 10.0 mi South 8.1 mph - N/A   Clear
7:55 AM 28.4 °F 19.7 °F 28.4 °F 100% 30.21 in 10.0 mi South 9.2 mph - N/A   Clear
8:15 AM 32.0 °F 23.6 °F 32.0 °F 100% 30.21 in 10.0 mi South 10.4 mph - N/A   Clear
8:20 AM 32.0 °F 23.0 °F 32.0 °F 100% 30.21 in 10.0 mi South 11.5 mph - N/A   Clear
8:35 AM 32.0 °F 23.6 °F 32.0 °F 100% 30.21 in 10.0 mi SSW 10.4 mph - N/A   Clear
8:40 AM 32.0 °F 23.6 °F 32.0 °F 100% 30.21 in 10.0 mi SSW 10.4 mph - N/A   Clear
8:55 AM 32.0 °F 24.2 °F 32.0 °F 100% 30.21 in 10.0 mi SSW 9.2 mph - N/A   Clear
9:00 AM 32.0 °F 23.6 °F 32.0 °F 100% 30.21 in 10.0 mi SSW 10.4 mph - N/A   Clear
9:15 AM 33.8 °F 25.8 °F 32.0 °F 93% 30.20 in 10.0 mi South 10.4 mph - N/A   Clear
9:55 AM 37.4 °F 30.3 °F 32.0 °F 81% 30.20 in 10.0 mi SSW 10.4 mph - N/A   Clear
10:00 AM 39.2 °F 32.5 °F 32.0 °F 75% 30.20 in 10.0 mi SSW 10.4 mph - N/A   Clear
10:15 AM 41.0 °F 34.7 °F 32.0 °F 70% 30.19 in 10.0 mi SSW 10.4 mph - N/A   Clear
10:20 AM 41.0 °F 33.9 °F 32.0 °F 70% 30.19 in 10.0 mi SW 12.7 mph - N/A   Clear
10:35 AM 41.0 °F 33.1 °F 28.4 °F 61% 30.19 in 10.0 mi SW 15.0 mph - N/A   Clear
10:40 AM 41.0 °F 34.7 °F 30.2 °F 65% 30.19 in 10.0 mi SW 10.4 mph - N/A   Clear
10:55 AM 41.0 °F 33.5 °F 30.2 °F 65% 30.18 in 10.0 mi SW 13.8 mph - N/A   Clear
11:00 AM 41.0 °F 33.5 °F 32.0 °F 70% 30.18 in 10.0 mi SW 13.8 mph - N/A   Clear
11:20 AM 42.8 °F 36.6 °F 32.0 °F 66% 30.17 in 10.0 mi SW 11.5 mph - N/A   Clear
11:35 AM 42.8 °F 36.2 °F 32.0 °F 66% 30.17 in 10.0 mi SW 12.7 mph - N/A   Clear
11:55 AM 44.6 °F 38.4 °F 32.0 °F 61% 30.16 in 10.0 mi SW 12.7 mph - N/A   Clear
12:00 PM 44.6 °F 38.4 °F 32.0 °F 61% 30.16 in 10.0 mi SW 12.7 mph - N/A   Clear
12:15 PM 46.4 °F 40.7 °F 32.0 °F 57% 30.16 in 10.0 mi SW 12.7 mph - N/A   Clear
12:20 PM 46.4 °F 41.1 °F 32.0 °F 57% 30.16 in 10.0 mi SW 11.5 mph - N/A   Clear
12:35 PM 48.2 °F - 33.8 °F 58% 30.15 in 10.0 mi SSW 12.7 mph 18.4 mph N/A   Clear
12:40 PM 48.2 °F - 33.8 °F 58% 30.14 in 10.0 mi SSW 13.8 mph - N/A   Clear
12:55 PM 48.2 °F - 33.8 °F 58% 30.14 in 10.0 mi SSW 10.4 mph - N/A   Clear
1:00 PM 48.2 °F - 33.8 °F 58% 30.14 in 10.0 mi SSW 12.7 mph - N/A   Clear
1:15 PM 50.0 °F - 32.0 °F 50% 30.13 in 10.0 mi SSW 11.5 mph - N/A   Clear
1:20 PM 50.0 °F - 32.0 °F 50% 30.12 in 10.0 mi SSW 13.8 mph - N/A   Clear
1:35 PM 50.0 °F - 32.0 °F 50% 30.12 in 10.0 mi SW 11.5 mph - N/A   Clear
1:55 PM 50.0 °F - 32.0 °F 50% 30.10 in 10.0 mi SW 12.7 mph - N/A   Clear
2:00 PM 50.0 °F - 32.0 °F 50% 30.10 in 10.0 mi SSW 11.5 mph 17.3 mph N/A   Clear
2:15 PM 51.8 °F - 32.0 °F 47% 30.09 in 10.0 mi SW 12.7 mph 18.4 mph N/A   Clear
2:20 PM 51.8 °F - 32.0 °F 47% 30.09 in 10.0 mi SSW 15.0 mph 20.7 mph N/A   Clear
2:35 PM 51.8 °F - 33.8 °F 50% 30.08 in 10.0 mi SW 13.8 mph - N/A   Clear
2:55 PM 53.6 °F - 33.8 °F 47% 30.07 in 10.0 mi SW 15.0 mph - N/A   Clear
3:15 PM 53.6 °F - 32.0 °F 44% 30.06 in 10.0 mi SSW 13.8 mph - N/A   Clear
3:20 PM 53.6 °F - 32.0 °F 44% 30.06 in 10.0 mi SW 13.8 mph 17.3 mph N/A   Clear
3:35 PM 53.6 °F - 32.0 °F 44% 30.06 in 10.0 mi SW 12.7 mph - N/A   Clear
3:55 PM 53.6 °F - 32.0 °F 44% 30.05 in 10.0 mi SW 11.5 mph - N/A   Clear
4:00 PM 53.6 °F - 32.0 °F 44% 30.05 in 10.0 mi SW 12.7 mph - N/A   Clear
4:15 PM 53.6 °F - 32.0 °F 44% 30.05 in 10.0 mi SW 11.5 mph - N/A   Clear
4:20 PM 53.6 °F - 32.0 °F 44% 30.05 in 10.0 mi SW 13.8 mph 18.4 mph N/A   Clear
4:35 PM 53.6 °F - 32.0 °F 44% 30.04 in 10.0 mi SW 13.8 mph - N/A   Clear
4:55 PM 53.6 °F - 32.0 °F 44% 30.04 in 10.0 mi SW 12.7 mph - N/A   Clear
5:15 PM 53.6 °F - 32.0 °F 44% 30.03 in 10.0 mi SW 12.7 mph - N/A   Clear
5:20 PM 53.6 °F - 32.0 °F 44% 30.03 in 10.0 mi SW 11.5 mph - N/A   Clear
5:35 PM 51.8 °F - 32.0 °F 47% 30.02 in 10.0 mi SW 10.4 mph - N/A   Clear
5:55 PM 50.0 °F - 33.8 °F 54% 30.02 in 10.0 mi SW 8.1 mph - N/A   Clear
6:00 PM 50.0 °F - 33.8 °F 54% 30.02 in 10.0 mi SW 8.1 mph - N/A   Clear
6:15 PM 48.2 °F - 35.6 °F 62% 30.01 in 10.0 mi SSW 8.1 mph - N/A   Clear
6:20 PM 48.2 °F - 33.8 °F 58% 30.01 in 10.0 mi SSW 9.2 mph - N/A   Clear
6:35 PM 46.4 °F 41.5 °F 33.8 °F 62% 30.01 in 10.0 mi SSW 10.4 mph - N/A   Clear
6:55 PM 44.6 °F 40.7 °F 33.8 °F 66% 30.01 in 10.0 mi SSW 6.9 mph - N/A   Clear
7:00 PM 44.6 °F 40.2 °F 33.8 °F 66% 30.01 in 10.0 mi SSW 8.1 mph - N/A   Clear
7:15 PM 46.4 °F 41.9 °F 33.8 °F 62% 30.01 in 10.0 mi SSW 9.2 mph - N/A   Clear
7:20 PM 46.4 °F 41.9 °F 33.8 °F 62% 30.01 in 10.0 mi SSW 9.2 mph - N/A   Clear
7:55 PM 41.0 °F 35.8 °F 33.8 °F 76% 30.00 in 10.0 mi SSW 8.1 mph - N/A   Clear
8:15 PM 42.8 °F 38.6 °F 32.0 °F 66% 29.99 in 10.0 mi South 6.9 mph - N/A   Clear
8:20 PM 42.8 °F 38.0 °F 32.0 °F 66% 29.99 in 10.0 mi South 8.1 mph - N/A   Clear
8:35 PM 41.0 °F 36.4 °F 32.0 °F 70% 29.98 in 10.0 mi South 6.9 mph - N/A   Clear
8:40 PM 41.0 °F 35.8 °F 32.0 °F 70% 29.98 in 10.0 mi South 8.1 mph - N/A   Clear
8:55 PM 41.0 °F 35.8 °F 32.0 °F 70% 29.98 in 10.0 mi South 8.1 mph - N/A   Clear
9:15 PM 41.0 °F 35.2 °F 32.0 °F 70% 29.97 in 10.0 mi South 9.2 mph - N/A   Clear
9:20 PM 41.0 °F 34.7 °F 32.0 °F 70% 29.96 in 10.0 mi South 10.4 mph - N/A   Clear
9:35 PM 41.0 °F 35.2 °F 32.0 °F 70% 29.96 in 10.0 mi South 9.2 mph - N/A   Clear
10:15 PM 41.0 °F 34.7 °F 33.8 °F 76% 29.95 in 10.0 mi South 10.4 mph - N/A   Clear
10:35 PM 41.0 °F 33.5 °F 32.0 °F 70% 29.94 in 10.0 mi South 13.8 mph - N/A   Clear
10:55 PM 41.0 °F 33.9 °F 32.0 °F 70% 29.94 in 10.0 mi South 12.7 mph 19.6 mph N/A   Clear
11:00 PM 41.0 °F 33.5 °F 32.0 °F 70% 29.94 in 10.0 mi South 13.8 mph 19.6 mph N/A   Clear
11:15 PM 42.8 °F 35.1 °F 32.0 °F 66% 29.93 in 10.0 mi South 16.1 mph - N/A   Clear
11:20 PM 41.0 °F 32.8 °F 32.0 °F 70% 29.93 in 10.0 mi South 16.1 mph 21.9 mph N/A   Clear
11:35 PM 41.0 °F 33.1 °F 32.0 °F 70% 29.93 in 10.0 mi South 15.0 mph - N/A   Clear
11:55 PM 41.0 °F 34.3 °F 32.0 °F 70% 29.92 in 10.0 mi South 11.5 mph - N/A   Clear